Location: Newark
(45.8667°N, 9.7333°E)
Time: 14:28:37
(UTC+00:00)

ITAMSAT 1 - Pass Details

Date: 22 February 2020
Orbit: 784 x 796 km, 98.9° (Epoch: 31 March)

Event Time Altitude Azimuth Distance (km) Brightness Sun altitude
Rises 04:40:10 0° 20° (NNE) 3,307 11.2 -16.9°
Reaches altitude 10° 04:42:36 10° 26° (NNE) 2,374 10.5 -16.5°
Maximum altitude 04:47:38 45° 99° (E) 1,071 8.9 -15.6°
Drops below altitude 10° 04:52:37 10° 172° (S) 2,360 10.2 -14.7°
Sets 04:55:02 0° 179° (S) 3,285 10.9 -14.3°
